Location: Unspecified
(0.0000°N, 0.0000°E)
Time: 12:47:32
(UTC+00:00)

Envisat - Pass Details

Date: 15 May 2022
Orbit: 764 x 765 km, 98.2° (Epoch: 19 May)

Event Time Altitude Azimuth Distance (km) Brightness Sun altitude
Rises 05:10:29 0° 342° (NNW) 3,212 6.3 -10.9°
Reaches altitude 10° 05:13:29 10° 323° (NW) 2,291 5.3 -10.1°
Maximum altitude 05:16:46 18° 282° (WNW) 1,827 4.5 -9.4°
Drops below altitude 10° 05:20:04 10° 241° (WSW) 2,298 4.8 -8.6°
Enters shadow 05:20:06 10° 241° (WSW) 2,308 4.8 -8.6°
